Regional Weather Roundup
Issued by NWS

Home | Current Version | Previous Version | Graphics & Text | Print | Product List | Glossary On
Versions: 1 2 3 4 5 6 7 8 9 10 11 12 13 14 15 16 17 18 19 20 21 22 23 24 25 26 27 28 29 30 31 32 33 34 35 36 37 38 39 40 41 42 43 44 45 46 47 48 49 50
428
ASUS43 KMKX 251210
RWRWI

WISCONSIN REGIONAL WEATHER ROUNDUP
NATIONAL WEATHER SERVICE MILWAUKEE/SULLIVAN WI
700 AM CDT WED APR 25 2018

NOTE: "FAIR" INDICATES FEW OR NO CLOUDS BELOW 12,000 FEET WITH NO
SIGNIFICANT WEATHER AND/OR OBSTRUCTIONS TO VISIBILITY.

WIZ001-002-006>008-014>016-023>028-251300-
NORTHWEST WISCONSIN

CITY           SKY/WX    TMP DP  RH WIND       PRES   REMARKS
SUPERIOR ARPT  FAIR      26  24  91 CALM      30.28S
6HR MIN TEMP:  23; 6HR MAX TEMP:  35;

ASHLAND        FAIR      28  26  92 SW3       30.26F
6HR MIN TEMP:  24; 6HR MAX TEMP:  32;

HAYWARD        FAIR      27  24  89 N3        30.24S
6HR MIN TEMP:  24; 6HR MAX TEMP:  37;

SIREN          FAIR      27  22  82 CALM      30.27R
6HR MIN TEMP:  24; 6HR MAX TEMP:  38;

CUMBERLAND     FAIR      30  23  74 CALM      30.25R
RICE LAKE      FAIR      32  27  80 CALM      30.26R
6HR MIN TEMP:  31; 6HR MAX TEMP:  40;

CHETEK         FAIR      30  27  88 CALM      30.25R
6HR MIN TEMP:  28; 6HR MAX TEMP:  39;

LADYSMITH      FAIR      30  27  86 N3        30.25R
6HR MIN TEMP:  28; 6HR MAX TEMP:  37;

EAU CLAIRE     FAIR      34  26  72 N5        30.23R WCI  30
6HR MIN TEMP:  32; 6HR MAX TEMP:  38;

MENOMONIE      FAIR      34  26  70 CALM      30.24S
6HR MIN TEMP:  34; 6HR MAX TEMP:  40;

NEW RICHMOND   FAIR      32  25  76 N6        30.26R WCI  26
6HR MIN TEMP:  30; 6HR MAX TEMP:  40;

OSCEOLA        FAIR      31  25  79 CALM      30.30R
6HR MIN TEMP:  28; 6HR MAX TEMP:  41;

$$

WIZ003>005-009-010-017-018-251300-
NORTH CENTRAL WISCONSIN

CITY           SKY/WX    TMP DP  RH WIND       PRES   REMARKS
MANITOWISH WTR FAIR      26  26 100 CALM      30.20S
6HR MIN TEMP:  23; 6HR MAX TEMP:  32;

ARBOR VITAE    FAIR      29  28  94 CALM      30.20S
6HR MIN TEMP:  26; 6HR MAX TEMP:  34;

WOODRUFF       FAIR      29  28  94 CALM      30.20S
6HR MIN TEMP:  26; 6HR MAX TEMP:  34;

RHINELANDER    FAIR      30  28  92 N3        30.19R
6HR MIN TEMP:  28; 6HR MAX TEMP:  35;

EAGLE RIVER    FAIR      28  26  94 NW3       30.18S
6HR MIN TEMP:  27; 6HR MAX TEMP:  33;

LAND O LAKES   FAIR      29  26  88 N3        30.20S
6HR MIN TEMP:  25; 6HR MAX TEMP:  34;

PHILLIPS       FAIR      28  27  94 CALM      30.21S
6HR MIN TEMP:  26; 6HR MAX TEMP:  34;

TOMAHAWK       FAIR      28  27  96 N3        30.21R
6HR MIN TEMP:  27; 6HR MAX TEMP:  32;

MEDFORD        FAIR      30  28  90 N5        30.20R WCI  25
6HR MIN TEMP:  29; 6HR MAX TEMP:  34;

MERRILL        FAIR      31  29  93 N5        30.21R WCI  26
6HR MIN TEMP:  30; 6HR MAX TEMP:  33;

$$

WIZ029-030-035-036-043>047-251300-
CENTRAL WISCONSIN

CITY           SKY/WX    TMP DP  RH WIND       PRES   REMARKS
WAUSAU         FAIR      33  28  81 N9        30.18R WCI  25
6HR MIN TEMP:  32; 6HR MAX TEMP:  38;

MOSINEE        CLEAR     34  30  86 N7        30.20R WCI  28
MARSHFIELD     FAIR      34  30  85 N8        30.18R WCI  27
6HR MIN TEMP:  33; 6HR MAX TEMP:  40;

STEVENS POINT  FAIR      32  30  93 N5        30.20R WCI  27
6HR MIN TEMP:  32; 6HR MAX TEMP:  40;

WAUPACA        FAIR      38  32  80 N9        30.19R WCI  31
6HR MIN TEMP:  37; 6HR MAX TEMP:  46;

WAUTOMA        FAIR      37  34  89 N3        30.19R
6HR MIN TEMP:  36; 6HR MAX TEMP:  46;

WISC RAPIDS    FAIR      36  30  79 N10       30.20R WCI  28
6HR MIN TEMP:  35; 6HR MAX TEMP:  45;

CAMP DOUGLAS   PTCLDY    32  32 100 W5        30.19R WCI  27
$$

WIZ011>013-019>022-031-037>040-048>050-251300-
NORTHEAST WISCONSIN

CITY           SKY/WX    TMP DP  RH WIND       PRES   REMARKS
ANTIGO         FAIR      30  28  90 N8        30.18R WCI  23
6HR MIN TEMP:  29; 6HR MAX TEMP:  33;

SHAWANO        FAIR      36  30  77 N8        30.18R WCI  30
6HR MIN TEMP:  36; 6HR MAX TEMP:  42;

OCONTO         FAIR      34  29  80 N9        30.17R WCI  27
6HR MIN TEMP:  34; 6HR MAX TEMP:  41;

STURGEON BAY   FAIR      34  29  82 N16       30.16R WCI  24
6HR MIN TEMP:  34; 6HR MAX TEMP:  41; 6HR PCP: TRACE;

GREEN BAY      FAIR      37  30  75 N13       30.18R WCI  29
6HR MIN TEMP:  36; 6HR MAX TEMP:  43;

MANITOWOC      FAIR      37  31  78 N13       30.16R WCI  29
6HR MIN TEMP:  37; 6HR MAX TEMP:  44; 6HR PCP: TRACE;

APPLETON       SUNNY     36  28  75 N12       30.16R WCI  27
CLINTONVILLE   FAIR      35  29  77 N5        30.19R WCI  31
6HR MIN TEMP:  35; 6HR MAX TEMP:  44;

OSHKOSH        FAIR      38  33  82 N10       30.17R WCI  31
6HR MIN TEMP:  37; 6HR MAX TEMP:  46;

$$

WIZ032>034-041-042-053>061-251300-
SOUTHWEST WISCONSIN

CITY           SKY/WX    TMP DP  RH WIND       PRES   REMARKS
LA CROSSE      FAIR      40  35  83 N7        30.21R
6HR MIN TEMP:  37; 6HR MAX TEMP:  46;

SPARTA         FAIR      35  33  95 CALM      30.22R
6HR MIN TEMP:  31; 6HR MAX TEMP:  43;

VIROQUA        FAIR      36  36 100 N10       30.17S WCI  29
6HR MIN TEMP:  35; 6HR MAX TEMP:  44;

BOSCOBEL       FAIR      39  34  82 CALM      30.18R
6HR MIN TEMP:  36; 6HR MAX TEMP:  51;

PRAIRIE DU CHI FAIR      43  33  69 N5        30.17R
6HR MIN TEMP:  42; 6HR MAX TEMP:  51;

PLATTEVILLE    FAIR      41  36  82 N8        30.14S
6HR MIN TEMP:  36; 6HR MAX TEMP:  51;

$$

WIZ056-057-062-063-064-067-068-251300-
SOUTH CENTRAL WISCONSIN

CITY           SKY/WX    TMP DP  RH WIND       PRES   REMARKS
REEDSBURG      FAIR      40  37  89 N8        30.17R WCI  34
6HR MIN TEMP:  39; 6HR MAX TEMP:  48;

BARABOO/DELLS  FAIR      40  36  85 N7        30.17R
6HR MIN TEMP:  38; 6HR MAX TEMP:  47;

LONE ROCK      FAIR      44  37  76 N8        30.17R
6HR MIN TEMP:  41; 6HR MAX TEMP:  52;

MINERAL POINT  FAIR      41  37  87 N8        30.14R
MADISON        FAIR      39  32  76 N7        30.15R WCI  34
6HR MIN TEMP:  37; 6HR MAX TEMP:  50;

MIDDLETON      FAIR      41  35  77 CALM      30.16R
6HR MIN TEMP:  36; 6HR MAX TEMP:  51;

WATERTOWN      FAIR      40  37  88 N7        30.14R
6HR MIN TEMP:  38; 6HR MAX TEMP:  47;

MONROE         FAIR      41  32  70 NE8       30.13R
JANESVILLE     SUNNY     45  32  61 N7        30.13R
$$

WIZ051-052-058>065-066-070>072-251300-
SOUTHEAST WISCONSIN

CITY           SKY/WX    TMP DP  RH WIND       PRES   REMARKS
MILWAUKEE      FAIR      42  35  76 N9        30.12S
6HR MIN TEMP:  39; 6HR MAX TEMP:  44;

WAUKESHA       SUNNY     37  32  81 NW5       30.14R WCI  34
MILWAUKEE/TIMM FAIR      39  32  75 N7        30.13S WCI  34
RACINE         FAIR      40  35  83 N10G23    30.13R WCI  33
6HR MIN TEMP:  39; 6HR MAX TEMP:  42;

BURLINGTON     FAIR      40  33  76 CALM      30.12S
6HR MIN TEMP:  38; 6HR MAX TEMP:  46;

KENOSHA        FAIR      41  33  73 N8        30.11S
6HR MIN TEMP:  40; 6HR MAX TEMP:  46;

FOND DU LAC    FAIR      40  33  76 N14       30.17R WCI  32
6HR MIN TEMP:  39; 6HR MAX TEMP:  46; 6HR PCP: TRACE;

SHEBOYGAN      FAIR      39  34  82 N10       30.15R WCI  32
6HR MIN TEMP:  38; 6HR MAX TEMP:  45;

WEST BEND      FAIR      37  36  93 N8        30.14R WCI  31
JUNEAU         FAIR      38  35  90 N8        30.16R WCI  32
6HR MIN TEMP:  36; 6HR MAX TEMP:  46;

$$

LSZ147-162-251300-
LAKE SUPERIOR

STATION/POSITION TIME  TEMP    WIND        PRES    WAVE
                       AIR SEA DIR/SP/G            HT/PER
                 (UTC) (F)     (DEG/KT/KT) (MB)    (FT/S)
DEVILS ISLAND    1100   35      10/  8/  9 1025.5F
SAXON HARBOR     1140   26     190/  2/  3 1024.0S
$$

LMZ867-665-643>646-251300-
LAKE MICHIGAN

STATION/POSITION TIME  TEMP    WIND        PRES    WAVE
                       AIR SEA DIR/SP/G            HT/PER




USA.gov is the U.S. government's official web portal to all federal, state and local government web resources and services.